TimeCDT,TemperatureF,Dew PointF,Humidity,Sea Level PressureIn,VisibilityMPH,Wind Direction,Wind SpeedMPH,Gust SpeedMPH,PrecipitationIn,Events,Conditions,WindDirDegrees,DateUTC
12:19 AM,80.6,73.4,79,29.99,10.0,South,11.5,-,N/A,,Mostly Cloudy,180,2012-09-01 05:19:00
12:54 AM,80.1,73.0,79,29.98,10.0,South,16.1,23.0,N/A,,Scattered Clouds,190,2012-09-01 05:54:00
1:08 AM,80.6,73.4,79,30.00,10.0,SSW,16.1,23.0,N/A,,Mostly Cloudy,200,2012-09-01 06:08:00
1:54 AM,79.0,73.0,82,29.99,10.0,South,12.7,-,N/A,,Overcast,190,2012-09-01 06:54:00
2:54 AM,79.0,73.0,82,29.99,10.0,SSW,10.4,19.6,N/A,,Overcast,200,2012-09-01 07:54:00
3:54 AM,80.1,73.9,81,30.00,10.0,SSW,13.8,18.4,N/A,,Mostly Cloudy,210,2012-09-01 08:54:00
4:54 AM,80.1,73.0,79,30.00,10.0,South,13.8,-,N/A,,Overcast,190,2012-09-01 09:54:00
5:04 AM,80.6,73.4,79,30.02,10.0,SSW,12.7,23.0,N/A,,Overcast,200,2012-09-01 10:04:00
5:20 AM,80.6,73.4,79,30.02,10.0,SSW,12.7,23.0,N/A,,Overcast,200,2012-09-01 10:20:00
5:27 AM,78.8,73.4,83,30.01,10.0,South,12.7,20.7,N/A,,Overcast,190,2012-09-01 10:27:00
5:37 AM,78.8,73.4,83,30.01,10.0,South,13.8,21.9,N/A,,Scattered Clouds,190,2012-09-01 10:37:00
5:54 AM,79.0,73.0,82,30.00,10.0,South,12.7,-,N/A,,Scattered Clouds,190,2012-09-01 10:54:00
6:10 AM,78.8,73.4,83,30.02,10.0,South,12.7,-,N/A,,Mostly Cloudy,190,2012-09-01 11:10:00
6:54 AM,79.0,73.9,84,30.03,10.0,SSW,11.5,18.4,N/A,,Overcast,210,2012-09-01 11:54:00
7:30 AM,80.6,73.4,79,30.05,10.0,SSW,12.7,21.9,N/A,,Mostly Cloudy,200,2012-09-01 12:30:00
7:54 AM,80.1,73.9,81,30.04,10.0,SSW,13.8,21.9,N/A,,Mostly Cloudy,200,2012-09-01 12:54:00
8:54 AM,81.0,73.9,79,30.04,10.0,SSW,13.8,-,N/A,,Mostly Cloudy,200,2012-09-01 13:54:00
9:01 AM,80.6,73.4,79,30.05,10.0,SW,15.0,20.7,N/A,,Overcast,220,2012-09-01 14:01:00
9:54 AM,82.0,73.0,74,30.05,10.0,SSW,15.0,21.9,N/A,,Mostly Cloudy,210,2012-09-01 14:54:00
10:54 AM,84.0,73.0,69,30.04,10.0,SW,16.1,24.2,N/A,,Mostly Cloudy,230,2012-09-01 15:54:00
11:22 AM,86.0,73.4,66,30.05,10.0,SSW,17.3,29.9,N/A,,Scattered Clouds,210,2012-09-01 16:22:00
11:44 AM,87.8,73.4,62,30.04,10.0,SW,13.8,25.3,N/A,,Mostly Cloudy,220,2012-09-01 16:44:00
11:54 AM,87.1,73.0,63,30.02,10.0,SW,15.0,26.5,N/A,,Mostly Cloudy,220,2012-09-01 16:54:00
12:10 PM,87.8,73.4,62,30.02,10.0,SSW,18.4,32.2,N/A,,Scattered Clouds,210,2012-09-01 17:10:00
12:54 PM,91.0,72.0,53,30.00,10.0,SW,20.7,35.7,N/A,,Scattered Clouds,220,2012-09-01 17:54:00
1:54 PM,91.9,72.0,52,29.97,10.0,SW,13.8,27.6,N/A,,Scattered Clouds,220,2012-09-01 18:54:00
2:54 PM,93.0,72.0,50,29.94,10.0,SSW,18.4,25.3,N/A,,Scattered Clouds,200,2012-09-01 19:54:00
3:54 PM,93.0,72.0,50,29.91,10.0,SSW,18.4,26.5,N/A,,Scattered Clouds,200,2012-09-01 20:54:00
4:54 PM,91.0,72.0,53,29.90,10.0,SSW,17.3,25.3,N/A,,Mostly Cloudy,210,2012-09-01 21:54:00
5:54 PM,91.0,72.0,53,29.90,10.0,SSW,19.6,28.8,N/A,,Mostly Cloudy,210,2012-09-01 22:54:00
6:54 PM,89.1,72.0,57,29.91,10.0,SSW,13.8,25.3,N/A,,Mostly Cloudy,210,2012-09-01 23:54:00
7:54 PM,79.0,66.9,66,29.92,10.0,North,4.6,-,N/A,,Overcast,360,2012-09-02 00:54:00
8:00 PM,78.8,68.0,69,29.94,10.0,WNW,10.4,-,N/A,Thunderstorm,Thunderstorm,300,2012-09-02 01:00:00
8:18 PM,75.2,71.6,89,29.94,5.0,NW,18.4,27.6,0.04,Rain-Thunderstorm,Heavy Thunderstorms and Rain,310,2012-09-02 01:18:00
8:22 PM,75.2,71.6,89,29.96,1.5,West,12.7,27.6,0.11,Rain-Thunderstorm,Heavy Thunderstorms and Rain,260,2012-09-02 01:22:00
8:27 PM,75.2,71.6,89,29.99,0.8,West,15.0,27.6,0.27,Rain-Thunderstorm,Heavy Thunderstorms and Rain,270,2012-09-02 01:27:00
8:43 PM,75.2,71.6,89,29.96,1.8,SSW,10.4,21.9,0.63,Rain-Thunderstorm,Light Thunderstorms and Rain,200,2012-09-02 01:43:00
8:50 PM,75.2,71.6,89,29.94,2.5,SSW,13.8,20.7,0.65,Rain-Thunderstorm,Heavy Thunderstorms and Rain,200,2012-09-02 01:50:00
8:54 PM,75.0,71.1,87,29.93,3.0,SW,12.7,20.7,0.66,Rain-Thunderstorm,Heavy Thunderstorms and Rain,220,2012-09-02 01:54:00
9:23 PM,75.2,71.6,89,29.98,1.8,SW,6.9,-,0.07,Rain-Thunderstorm,Heavy Thunderstorms and Rain,230,2012-09-02 02:23:00
9:33 PM,75.2,71.6,89,29.97,1.2,WSW,6.9,20.7,0.24,Rain-Thunderstorm,Thunderstorms and Rain,240,2012-09-02 02:33:00
9:37 PM,75.2,71.6,89,29.96,3.0,WSW,6.9,-,0.24,Rain-Thunderstorm,Thunderstorms and Rain,240,2012-09-02 02:37:00
9:54 PM,75.0,72.0,90,29.95,10.0,South,9.2,-,0.25,Thunderstorm,Thunderstorm,190,2012-09-02 02:54:00
10:27 PM,75.2,71.6,89,29.96,10.0,South,10.4,-,N/A,,Overcast,180,2012-09-02 03:27:00
10:54 PM,73.4,69.8,88,29.95,10.0,South,13.8,-,N/A,,Mostly Cloudy,180,2012-09-02 03:54:00
11:54 PM,75.0,70.0,84,29.92,10.0,SSW,11.5,-,N/A,,Mostly Cloudy,210,2012-09-02 04:54:00